Location: Hokitika
(42.7170°S, 170.9670°E)
Time: 09:14:39
(UTC+13:00)

ISS - Pass Details

Date: 02 February 2019
Orbit: 403 x 411 km, 51.6° (Epoch: 21 February)

Event Time Altitude Azimuth Distance (km) Brightness Sun altitude
Exits shadow 06:04:03 - 270° (W) 1,847 -1.0 -6.5°
Reaches altitude 10° 06:04:59 10° 264° (W) 1,496 -1.4 -6.4°
Maximum altitude 06:07:59 29° 201° (SSW) 794 -2.2 -5.9°
Drops below altitude 10° 06:11:00 10° 138° (SE) 1,499 0.5 -5.4°
Sets 06:13:16 0° 126° (SE) 2,363 2.6 -5.1°
